Date_and_time,latitude,longitude,wind_speed,RelWindDirFrom,WindDirFrom,air_pressure,air_temperature,relative_humidity,Temp,platform_speed_wrt_ground,air_pressure_at_mean_sea_level,platform_orientation
2018-09-09 23:40,50.630455,-96.98078,11.7,14.0,169,980.05,20.9,68,17.15,0.0,1005.64,167.4
2018-09-09 23:50,50.63043,-96.98076,11.4,15.3,176,980.23,20.3,70,17.16,0.0,1005.88,167.4
2018-09-10 00:00,50.630445,-96.9807783333333,11.9,14.4,179,980.04,20.8,68,17.16,0.0,1005.66,270.0
2018-09-10 00:10,50.63045,-96.9807716666667,9.2,11.1,183,979.95,20.6,71,17.16,0.0,1005.59,270.0
2018-09-10 00:20,50.6304483333333,-96.9807716666667,7.3,9.0,191,980.02,20.5,74,17.17,0.0,1005.70,270.0
2018-09-10 00:30,50.6304583333333,-96.9807116666667,6.9,9.7,177,979.73,20.4,76,17.17,0.0,1005.44,270.0
2018-09-10 00:40,50.63045,-96.9807566666667,3.4,6.9,214,979.64,20.2,80,17.18,0.0,1005.38,270.0
2018-09-10 00:50,50.6304516666667,-96.9807616666667,4.0,5.8,269,979.79,20.5,79,17.17,0.0,1005.51,270.0
2018-09-10 01:00,50.6304483333333,-96.98076,3.8,6.0,258,979.91,20.3,81,17.15,0.0,1005.61,360.0
2018-09-10 01:10,50.6304483333333,-96.9807633333333,4.2,6.4,243,979.98,20.0,82,17.15,0.0,1005.66,360.0
2018-09-10 01:20,50.6304466666667,-96.9807633333333,5.4,7.0,228,980.12,19.8,84,17.15,0.0,1005.82,360.0
2018-09-10 01:30,50.6304483333333,-96.9807616666667,5.8,9.0,222,979.96,19.8,84,17.15,0.0,1005.66,360.0
2018-09-10 01:40,50.6304266666667,-96.9807566666667,6.1,8.5,226,979.93,19.7,85,17.15,0.0,1005.67,360.0
2018-09-10 01:50,50.6304366666667,-96.9807583333333,5.5,7.5,212,979.86,19.5,87,17.17,0.0,1005.58,360.0
2018-09-10 02:00,50.63044,-96.98076,5.0,6.2,206,979.85,19.3,90,17.18,0.0,1005.58,90.0
2018-09-10 02:10,50.6304283333333,-96.980765,4.6,5.9,228,979.95,19.2,92,17.15,0.0,1005.69,90.0
2018-09-10 02:20,50.6304433333333,-96.98075,5.6,7.9,219,980.03,19.0,93,17.20,0.0,1005.79,90.0
2018-09-10 02:30,50.630445,-96.9807533333333,5.4,7.3,217,980.08,18.8,95,17.20,0.0,1005.87,90.0
2018-09-10 02:40,50.6304466666667,-96.980755,5.4,6.7,222,980.22,18.7,96,17.19,0.0,1006.00,90.0
2018-09-10 02:50,50.6304816666667,-96.980775,5.2,7.3,216,980.32,18.7,97,17.17,0.0,1006.11,90.0
2018-09-10 03:00,50.63046,-96.9807683333333,5.2,7.1,227,980.47,18.5,98,17.18,0.0,1006.28,31.1
2018-09-10 03:10,50.63046,-96.9807683333333,5.1,7.3,229,980.61,18.5,96,17.21,0.0,1006.44,31.1
2018-09-10 03:20,50.6304566666667,-96.98077,4.7,6.1,216,980.66,18.5,94,17.25,0.0,1006.49,31.1
2018-09-10 03:30,50.630455,-96.98077,3.4,5.0,220,980.70,18.4,97,17.22,0.0,1006.54,31.1
2018-09-10 03:40,50.6304566666667,-96.98077,3.0,4.6,236,980.78,18.3,97,17.16,0.0,1006.64,31.1
2018-09-10 03:50,50.6304583333333,-96.980745,3.1,4.3,233,980.89,18.2,96,17.17,0.0,1006.76,31.1
2018-09-10 04:00,50.6304416666667,-96.98076,2.4,3.9,282,980.94,18.1,96,17.17,0.0,1006.82,360.0
2018-09-10 04:10,50.6304416666667,-96.9807616666667,2.1,3.7,276,980.90,18.0,98,17.20,0.0,1006.80,360.0
2018-09-10 04:20,50.6304433333333,-96.9807616666667,2.1,3.3,278,980.94,17.9,98,17.20,0.0,1006.85,360.0
2018-09-10 04:30,50.630445,-96.9807633333333,3.3,6.5,286,981.17,18.0,97,17.18,0.0,1007.09,360.0
2018-09-10 04:40,50.6304333333333,-96.9807866666667,3.2,5.7,288,981.31,18.0,95,17.15,0.0,1007.23,360.0
2018-09-10 04:50,50.6304483333333,-96.9807783333333,1.6,3.4,279,981.39,17.8,95,17.15,0.0,1007.32,360.0
2018-09-10 05:00,50.63045,-96.98078,1.0,2.8,278,981.49,17.7,95,17.14,0.0,1007.43,302.3
2018-09-10 05:10,50.63045,-96.98078,0.5,1.9,257,981.67,17.7,93,17.14,0.0,1007.62,302.3
2018-09-10 05:20,50.6304483333333,-96.9807766666667,0.9,1.4,215,981.78,17.5,94,17.11,0.0,1007.75,302.3
2018-09-10 05:30,50.63045,-96.9807733333333,1.0,1.5,198,981.89,17.4,95,17.10,0.0,1007.87,302.3
2018-09-10 05:40,50.63045,-96.9807766666667,1.0,1.5,211,981.97,17.3,96,17.09,0.0,1007.96,302.3
2018-09-10 05:50,50.63045,-96.9807766666667,1.9,2.3,220,982.00,17.2,96,17.07,0.0,1007.99,302.3
2018-09-10 06:00,50.630435,-96.98079,2.6,3.1,222,981.98,17.0,97,17.05,0.0,1007.99,216.6
2018-09-10 06:10,50.6304516666667,-96.98077,3.1,3.5,235,982.02,16.9,96,17.02,0.0,1008.04,216.6
2018-09-10 06:20,50.6304483333333,-96.9807733333333,4.0,4.6,240,982.04,16.8,97,17.02,0.0,1008.06,216.6
2018-09-10 06:30,50.6304433333333,-96.9807683333333,4.0,4.9,242,982.00,16.4,99,17.02,0.0,1008.04,216.6
2018-09-10 06:40,50.63044,-96.980765,4.7,5.9,233,982.08,15.9,100,17.02,0.0,1008.14,216.6
2018-09-10 06:50,50.6304283333333,-96.9807716666667,4.9,5.8,232,982.07,15.6,100,17.02,0.0,1008.16,216.6
2018-09-10 07:00,50.630425,-96.9807483333333,4.6,5.6,236,982.04,15.3,100,17.02,0.0,1008.15,140.5
2018-09-10 07:10,50.630445,-96.9807833333333,4.6,6.4,232,982.05,15.0,100,17.03,0.0,1008.18,140.5
2018-09-10 07:20,50.6304416666667,-96.9807816666667,5.6,7.0,230,982.03,14.8,100,17.03,0.0,1008.17,140.5
2018-09-10 07:30,50.6304383333333,-96.9807766666667,5.5,7.1,231,982.04,14.6,100,17.04,0.0,1008.19,140.5
2018-09-10 07:40,50.6304266666667,-96.9807733333333,4.9,6.5,233,982.06,14.4,100,17.04,0.0,1008.23,140.5
2018-09-10 07:50,50.630435,-96.9807733333333,5.0,7.2,232,982.08,14.2,100,17.04,0.0,1008.27,140.5
2018-09-10 08:00,50.6304333333333,-96.98077,5.6,7.1,231,982.12,14.1,100,17.05,0.0,1008.32,152.6
2018-09-10 08:10,50.630435,-96.98077,5.3,7.2,231,982.10,13.8,100,17.05,0.0,1008.32,152.6
2018-09-10 08:20,50.6304483333333,-96.9807983333333,6.1,7.8,235,982.03,13.7,99,17.05,0.0,1008.27,152.6
2018-09-10 08:30,50.6304466666667,-96.98077,6.1,8.8,230,981.95,13.8,99,17.05,0.0,1008.20,152.6
2018-09-10 08:40,50.6304466666667,-96.98077,6.1,7.5,233,981.95,13.6,99,17.04,0.0,1008.22,152.6
2018-09-10 08:50,50.630455,-96.98077,6.2,8.1,235,982.00,13.6,99,17.04,0.0,1008.29,152.6
2018-09-10 09:00,50.63045,-96.9807666666667,5.9,8.5,240,981.94,13.5,99,17.03,0.0,1008.25,43.0
2018-09-10 09:10,50.6304483333333,-96.980765,5.5,7.3,236,981.93,13.3,99,17.03,0.0,1008.25,43.0
2018-09-10 09:20,50.6304483333333,-96.980765,5.5,8.0,229,981.92,13.3,99,17.03,0.0,1008.26,43.0
2018-09-10 09:30,50.6304466666667,-96.9807633333333,5.4,7.9,226,981.92,13.3,99,17.02,0.0,1008.27,43.0
2018-09-10 09:40,50.630445,-96.9807633333333,6.4,8.8,218,981.95,13.1,99,17.02,0.0,1008.32,43.0
2018-09-10 09:50,50.6304433333333,-96.9807633333333,7.4,9.6,222,981.99,13.0,99,17.01,0.0,1008.37,43.0
2018-09-10 10:00,50.6304416666667,-96.980765,6.7,9.3,229,982.01,13.0,98,17.01,0.0,1008.39,316.6
2018-09-10 10:10,50.6304416666667,-96.980765,6.6,8.8,230,982.04,13.0,98,17.00,0.0,1008.44,316.6
2018-09-10 10:20,50.63044,-96.9807666666667,6.1,8.1,227,982.05,12.8,99,16.99,0.0,1008.45,316.6
2018-09-10 10:30,50.63044,-96.9807683333333,5.6,7.3,228,982.19,12.6,99,16.99,0.0,1008.60,316.6
2018-09-10 10:40,50.6304383333333,-96.9807683333333,5.1,6.7,226,982.25,12.5,99,16.99,0.0,1008.68,316.6
2018-09-10 10:50,50.63044,-96.9807683333333,5.5,7.5,219,982.24,12.3,99,16.98,0.0,1008.68,316.6
2018-09-10 11:00,50.63044,-96.98077,6.8,9.0,219,982.30,12.3,99,16.97,0.0,1008.75,360.0
2018-09-10 11:10,50.63044,-96.98077,6.8,8.5,220,982.40,12.3,99,16.96,0.0,1008.86,360.0
2018-09-10 11:20,50.6304383333333,-96.9807683333333,6.3,8.0,221,982.43,12.3,99,16.95,0.0,1008.89,360.0
2018-09-10 11:30,50.63044,-96.9807683333333,5.3,8.0,221,982.45,12.2,100,16.94,0.0,1008.92,360.0
2018-09-10 11:40,50.63044,-96.9807683333333,4.8,6.5,225,982.54,12.1,100,16.93,0.0,1009.02,360.0
2018-09-10 11:50,50.63044,-96.9807666666667,5.2,7.8,232,982.56,12.0,99,16.92,0.0,1009.04,360.0
2018-09-10 12:00,50.63044,-96.9807666666667,4.5,6.4,228,982.61,11.9,100,16.91,0.0,1009.11,360.0
2018-09-10 12:10,50.63044,-96.9807666666667,4.4,5.8,226,982.74,11.9,100,16.91,0.0,1009.24,360.0
2018-09-10 12:20,50.63044,-96.9807666666667,4.8,7.5,229,982.77,11.7,99,16.91,0.0,1009.29,360.0
2018-09-10 12:30,50.63044,-96.9807666666667,5.0,6.7,229,982.84,11.7,99,16.92,0.0,1009.37,360.0
2018-09-10 12:40,50.63044,-96.980765,5.2,7.5,233,982.86,11.8,99,16.92,0.0,1009.40,360.0
2018-09-10 12:50,50.63044,-96.980765,4.6,6.7,232,982.88,12.0,99,16.91,0.0,1009.41,360.0
2018-09-10 13:00,50.6304583333333,-96.980795,4.7,6.8,235,982.92,12.3,96,16.91,0.0,1009.43,309.1
2018-09-10 13:10,50.6304416666667,-96.9807133333333,3.7,5.4,232,982.82,12.5,95,16.89,0.0,1009.33,309.1
2018-09-10 13:20,50.6304683333333,-96.980785,5.2,7.7,231,982.86,12.6,93,16.88,0.0,1009.37,309.1
2018-09-10 13:30,50.6304433333333,-96.9807616666667,5.1,7.7,227,982.90,12.9,92,16.88,0.0,1009.39,309.1
2018-09-10 13:40,50.6304533333333,-96.98076,5.2,6.7,217,982.96,12.9,92,16.87,0.0,1009.46,309.1
2018-09-10 13:50,50.63043,-96.9807483333333,5.7,10.2,224,982.99,13.3,90,16.86,0.0,1009.47,309.1
2018-09-10 14:00,50.63045,-96.9807466666667,6.7,11.8,235,982.93,13.9,85,16.84,0.0,1009.38,49.4
2018-09-10 14:10,50.630445,-96.9807516666667,7.8,12.4,246,982.99,14.4,80,16.81,0.0,1009.43,49.4
2018-09-10 14:20,50.6304433333333,-96.9807583333333,7.8,12.2,240,983.01,14.7,79,16.79,0.0,1009.45,49.4
2018-09-10 14:30,50.6304483333333,-96.9807983333333,8.7,13.0,239,983.02,15.0,76,16.79,0.0,1009.44,49.4
2018-09-10 14:40,50.6304366666667,-96.980765,7.6,10.9,235,983.07,15.3,75,16.79,0.0,1009.47,49.4
2018-09-10 14:50,50.6304366666667,-96.9807616666667,6.5,13.1,246,983.08,15.6,72,16.79,0.0,1009.44,49.4
2018-09-10 15:00,50.6304366666667,-96.980765,8.0,14.1,243,983.06,16.1,68,16.79,0.0,1009.39,360.0
2018-09-10 15:10,50.6304583333333,-96.98079,8.1,13.6,245,983.04,16.4,65,16.81,0.0,1009.35,360.0
2018-09-10 15:20,50.6304333333333,-96.980765,9.8,15.5,239,983.03,16.7,61,16.96,0.0,1009.31,360.0
2018-09-10 15:30,50.6304366666667,-96.980765,10.6,16.3,245,983.05,17.0,57,16.86,0.0,1009.32,360.0
2018-09-10 15:40,50.6304366666667,-96.9807633333333,9.3,15.3,257,983.12,17.3,53,16.87,0.0,1009.36,360.0
2018-09-10 15:50,50.6304366666667,-96.980765,8.9,14.4,251,983.19,17.5,53,16.87,0.0,1009.40,360.0
2018-09-10 16:00,50.6304383333333,-96.9807666666667,10.0,15.6,262,983.09,17.6,52,16.89,0.0,1009.26,125.8
2018-09-10 16:10,50.630445,-96.9807733333333,10.4,17.4,264,983.07,17.7,51,16.92,0.0,1009.22,125.8
2018-09-10 16:20,50.6304466666667,-96.9807716666667,9.5,15.5,259,983.09,17.8,50,16.94,0.0,1009.24,125.8
2018-09-10 16:30,50.6304416666667,-96.9807733333333,9.6,14.7,266,983.06,17.9,51,16.97,0.0,1009.19,125.8
2018-09-10 16:40,50.63044,-96.9807733333333,9.9,16.3,255,983.13,18.0,49,17.00,0.0,1009.23,125.8
2018-09-10 16:50,50.63044,-96.980775,9.2,15.2,250,983.21,18.1,50,17.04,0.0,1009.29,125.8
2018-09-10 17:00,50.63044,-96.980775,10.6,16.3,238,983.26,18.2,50,17.07,0.0,1009.32,237.7
2018-09-10 17:10,50.6304616666667,-96.9807916666667,10.3,15.7,231,983.21,18.1,50,17.09,0.0,1009.26,237.7
2018-09-10 17:20,50.6304366666667,-96.9807733333333,9.6,15.5,255,983.21,18.3,50,17.12,0.0,1009.25,237.7
2018-09-10 17:30,50.630445,-96.9807683333333,7.3,12.6,249,983.18,18.5,50,17.14,0.0,1009.18,237.7
2018-09-10 17:40,50.6304466666667,-96.9807716666667,9.1,13.7,254,983.18,18.5,49,17.15,0.0,1009.18,237.7
2018-09-10 17:50,50.6304466666667,-96.9807683333333,7.7,14.8,251,983.17,18.6,50,17.16,0.0,1009.15,237.7
2018-09-10 18:00,50.6304616666667,-96.9807816666667,9.4,13.9,266,983.09,18.7,50,17.20,0.0,1009.07,351.6
2018-09-10 18:10,50.6304483333333,-96.98077,10.1,18.8,234,983.21,18.5,52,17.29,0.0,1009.20,351.6
2018-09-10 18:20,50.63045,-96.9807683333333,10.0,17.3,238,983.28,18.3,53,17.41,0.0,1009.27,351.6
2018-09-10 18:30,50.6304533333333,-96.980765,8.7,14.9,237,983.27,18.3,52,17.47,0.0,1009.25,351.6
2018-09-10 18:40,50.63045,-96.9807583333333,8.9,17.0,238,983.25,18.5,52,17.49,0.0,1009.22,351.6
2018-09-10 18:50,50.6304333333333,-96.980775,10.8,16.9,240,983.28,18.6,52,17.52,0.0,1009.24,351.6
2018-09-10 19:00,50.630445,-96.980755,10.3,14.6,243,983.30,18.5,52,17.53,0.0,1009.28,90.0
2018-09-10 19:10,50.6304466666667,-96.9807533333333,11.0,17.6,243,983.31,18.6,52,17.57,0.0,1009.27,90.0
2018-09-10 19:20,50.630445,-96.9807533333333,10.5,15.8,240,983.31,18.7,53,17.61,0.0,1009.26,90.0
2018-09-10 19:30,50.6304666666667,-96.9807683333333,9.2,16.1,247,983.32,18.8,53,17.62,0.0,1009.26,90.0
2018-09-10 19:40,50.6304533333333,-96.9807616666667,11.0,16.1,238,983.24,18.7,53,17.63,0.0,1009.18,90.0
2018-09-10 19:50,50.6304516666667,-96.9807683333333,11.2,18.9,246,983.22,18.9,53,17.67,0.0,1009.15,90.0
2018-09-10 20:00,50.6304466666667,-96.9807683333333,9.6,14.9,272,983.20,18.8,53,17.73,0.0,1009.15,48.3
2018-09-10 20:10,50.6304466666667,-96.9807683333333,9.0,14.2,273,983.33,18.8,53,17.81,0.0,1009.28,48.3
2018-09-10 20:20,50.6304483333333,-96.9807666666667,7.1,13.1,281,983.22,18.8,53,17.85,0.0,1009.17,48.3
2018-09-10 20:30,50.630445,-96.9807666666667,8.7,15.2,267,983.23,18.9,52,17.79,0.0,1009.16,48.3
2018-09-10 20:40,50.6304433333333,-96.9807683333333,7.4,12.2,280,983.34,18.8,53,17.68,0.0,1009.28,48.3
2018-09-10 20:50,50.6304466666667,-96.9807666666667,6.9,12.5,276,983.38,18.8,53,17.62,0.0,1009.32,48.3
2018-09-10 21:00,50.630445,-96.9807633333333,5.8,9.8,283,983.39,19.2,51,17.60,0.0,1009.31,360.0
2018-09-10 21:10,50.630445,-96.9807633333333,7.1,11.5,286,983.42,18.9,52,17.60,0.0,1009.36,360.0
2018-09-10 21:20,50.6304433333333,-96.9807633333333,7.3,14.5,298,983.37,18.9,51,17.63,0.0,1009.30,360.0
2018-09-10 21:30,50.63044,-96.980765,7.7,14.0,291,983.36,19.0,51,17.65,0.0,1009.29,360.0
2018-09-10 21:40,50.6304383333333,-96.9807666666667,8.7,13.9,284,983.39,19.1,50,17.65,0.0,1009.30,360.0
2018-09-10 21:50,50.630435,-96.9808,9.0,15.9,295,983.32,19.3,49,17.67,0.0,1009.23,360.0
2018-09-10 22:00,50.63044,-96.9807816666667,7.3,12.8,281,983.32,19.2,49,17.68,0.0,1009.22,270.0
2018-09-10 22:10,50.6304366666667,-96.98077,8.1,15.3,270,983.34,19.3,49,17.68,0.0,1009.25,270.0
2018-09-10 22:20,50.63044,-96.9807716666667,7.7,11.3,280,983.31,19.5,47,17.65,0.0,1009.20,270.0
2018-09-10 22:30,50.6304366666667,-96.9807666666667,5.8,11.3,294,983.30,19.7,48,17.68,0.0,1009.19,270.0
2018-09-10 22:40,50.6304383333333,-96.9807633333333,7.2,11.7,305,983.23,19.5,49,17.67,0.0,1009.13,270.0
2018-09-10 22:50,50.6304383333333,-96.980765,6.8,10.8,310,983.19,19.3,49,17.59,0.0,1009.08,270.0
2018-09-10 23:00,50.6304383333333,-96.980765,6.1,10.9,298,983.38,19.4,49,17.57,0.0,1009.28,142.0
2018-09-10 23:10,50.6304383333333,-96.9807666666667,6.5,10.4,304,983.38,19.4,49,17.72,0.0,1009.27,142.0
2018-09-10 23:20,50.6304516666667,-96.980775,6.0,9.2,304,983.48,19.3,49,17.74,0.0,1009.38,142.0
2018-09-10 23:30,50.6304433333333,-96.9807766666667,7.0,9.7,331,983.53,19.0,52,17.70,0.0,1009.45,142.0
2018-09-10 23:40,50.6304216666667,-96.9807666666667,4.9,8.5,317,983.60,18.7,52,17.60,0.0,1009.52,142.0
2018-09-10 23:50,50.630435,-96.9807616666667,5.0,7.7,320,983.63,18.7,52,17.55,0.0,1009.56,142.0
